431P/Scotti (2022)

Japanese version
Home page
Updated on January 20, 2022

---------------------------------------------------------------------

* Profile

Designation 431P/2021 P5
Recovery Date August 2, 2021
Magnitude 20.3 mag
Recoverer F. Kugel (Dauban, Banon, France)

* Pictures

* Orbital Elements

Epoch 2022 Jan. 21.0 TT = JDT 2459600.5
T 2022 Feb. 13.36180 TT                                 Rudenko
q   1.8136744            (2000.0)            P               Q
n   0.15229696     Peri.  199.85479     +0.74484861     -0.65063503
a   3.4727637      Node   202.84593     +0.65202042     +0.75682291
e   0.4777432      Incl.   22.39176     +0.14166836     -0.06239502
P   6.47
From 426 observations 2002 Nov. 16-2021 Dec. 15, mean residual 0".7.

* Magnitudes Graph

        m1 = 15.5 + 5 log d + 10.0 log r

---------------------------------------------------------------------

The orbital elements are published on M.P.E.C. 2021-Y10.
The magnitudes graphs are made with Comet for Windows.

---------------------------------------------------------------------

Copyright(C) Seiichi Yoshida (comet@aerith.net). All rights reserved.